Location: Little Chesterford
(52.0500°N, 0.1833°E)
Time: 13:14:37
(UTC+00:00)

Cosmos 1805 - Pass Details

Date: 26 September 2023
Orbit: 502 x 504 km, 82.5° (Epoch: 29 November)

Event Time Altitude Azimuth Distance (km) Brightness Sun altitude
Rises 19:43:29 0° 206° (SSW) 2,589 6.8 -18.0°
Reaches altitude 10° 19:45:40 10° 213° (SSW) 1,710 6.0 -18.4°
Maximum altitude 19:49:14 42° 286° (WNW) 728 4.4 -18.9°
Drops below altitude 10° 19:52:51 10° 359° (N) 1,725 6.2 -19.4°
Sets 19:55:04 0° 6° (N) 2,615 7.0 -19.7°
